Weather in Stanytsia Luhanska

Ukraine / Luhansk Region     48°40′14″N   39°28′20″E
temp.,
°C
wind,
m/s
gust,
m/s
humid.,
%
clouds,
%
prec.,
mm/h
press.,
hPa
HPBL,
m
22 april, thu
thu2200:00+10ssw4880100 0.0 1019203
03:00+9sw368646 0.0 1020141
06:00+8sw23885 0.0 102154
09:00+13sw33675 0.0 1022602
12:00+16sw335236 0.8 10221601
15:00+17sw2346100 1.8 10211914
18:00+15ne115999 0.6 102134
21:00+12w1168100 1.8 102210
23 april, fri
fri2300:00+11s1176100 1.3 102210
03:00+10wsw2279100 1.4 102110
06:00+9wsw228153 0.0 102232
09:00+13sw346474 0.0 1022526
12:00+17sw344534 0.0 10202039
15:00+16sw454897 0.0 1019923
18:00+16ssw465392 0.0 1018386
21:00+12ssw5116846 0.0 1018337
24 april, sat
sat2400:00+10ssw31071100 0.0 1016275
03:00+10ssw51169100 0.0 1015399
06:00+9ssw497999 0.0 1015286
09:00+12wsw71165100 0.1 10141431
12:00+8w688399 0.7 1016853
15:00+12w8104799 0.8 10152024
18:00+12w710456 0.0 10151234
21:00+8w81263100 0.1 1017731
25 april, sun
sun2500:00+5w612620 0.0 1019562
03:00+4w611695 0.0 1020604
06:00+5wnw696297 0.0 10201103
09:00+8wnw57525 0.0 10211324
12:00+11wnw563870 0.0 10212238
15:00+13w4533100 0.0 10202384
18:00+12w2340100 0.0 1019442
21:00+9sw2246100 0.0 102011
26 april, mon
mon2600:00+7s2248100 0.0 101910
03:00+6ssw1257100 0.0 101910
06:00+6s2263100 0.0 101816
09:00+11sw2348100 0.0 1017579
12:00+14sw453867 0.0 10162228
15:00+14sw6841100 0.0 10142211
18:00+9w8107068 0.4 1016973
21:00+5nw37770 0.4 1017236